Deptford, New Jersey, United States
Lat: 39.83N, Lon: 75.13W
Wx Zone: NJZ017
Local Info
Past Weather Observations for Tuesday, September 20, 2016

NOTE: This archive is for the closest National Weather Service station to Deptford. Information may differ from the station used for current weather conditions.

Click here for Long-term Archive

Time Weather Temperature Dewpoint Humidity Pressure Winds Precip Visibility
23:54
Overcast
72°F / 22°C 66°F / 19°C 83% 30.12 in
(1020 mb)
NNW 4.6 mph
(NNW 7 kph)
- 10SM
22:54
Overcast
73°F / 23°C 68°F / 20°C 83% 30.12 in
(1020 mb)
Calm - 10SM
21:54
Mostly Cloudy
75°F / 24°C 68°F / 20°C 78% 30.12 in
(1020 mb)
Calm - 10SM
20:54
Overcast
75°F / 24°C 70°F / 21°C 83% 30.12 in
(1020 mb)
Calm - 10SM
19:54
Overcast
75°F / 24°C 70°F / 21°C 83% 30.12 in
(1020 mb)
Calm - 10SM
18:54
Overcast
75°F / 24°C 70°F / 21°C 83% 30.12 in
(1020 mb)
S 3.5 mph
(S 6 kph)
- 10SM
17:54
Overcast
79°F / 26°C 66°F / 19°C 65% 30.09 in
(1019 mb)
SE 3.5 mph
(SE 6 kph)
- 10SM
16:54
Overcast
81°F / 27°C 66°F / 19°C 62% 30.09 in
(1019 mb)
Calm - 10SM
15:54
Overcast
81°F / 27°C 66°F / 19°C 62% 30.09 in
(1019 mb)
E 4.6 mph
(E 7 kph)
- 10SM
14:54
Overcast
82°F / 28°C 66°F / 19°C 58% 30.09 in
(1019 mb)
E 6.9 mph
(E 11 kph)
- 10SM
13:54
Overcast
82°F / 28°C 66°F / 19°C 58% 30.09 in
(1019 mb)
ENE 5.8 mph
(ENE 9 kph)
- 10SM
12:54
Overcast
81°F / 27°C 66°F / 19°C 62% 30.12 in
(1020 mb)
ENE 5.8 mph
(ENE 9 kph)
- 10SM
11:54
Overcast
79°F / 26°C 66°F / 19°C 65% 30.12 in
(1020 mb)
N 11.5 mph
(N 19 kph)
- 10SM
10:54
Overcast
77°F / 25°C 66°F / 19°C 69% 30.12 in
(1020 mb)
E 8.1 mph
(E 13 kph)
- 9SM
09:59
Overcast
75°F / 24°C 68°F / 20°C 78% 30.15 in
(1021 mb)
E 5.8 mph
(E 9 kph)
- 8SM
09:54
Overcast
75°F / 24°C 68°F / 20°C 78% 30.15 in
(1021 mb)
E 5.8 mph
(E 9 kph)
- 7SM
09:04
Overcast
73°F / 23°C 66°F / 19°C 78% 30.15 in
(1021 mb)
N 6.9 mph
(N 11 kph)
- 8SM
08:54
Overcast
72°F / 22°C 66°F / 19°C 83% 30.15 in
(1021 mb)
N 6.9 mph
(N 11 kph)
- 7SM
08:43
Overcast
72°F / 22°C 66°F / 19°C 83% 30.15 in
(1021 mb)
N 8.1 mph
(N 13 kph)
- 7SM
08:22
Overcast
Fog And Mist
72°F / 22°C 66°F / 19°C 83% 30.12 in
(1020 mb)
N 9.2 mph
(N 15 kph)
- 6SM
07:54
Overcast
Fog And Mist
70°F / 21°C 66°F / 19°C 88% 30.12 in
(1020 mb)
N 9.2 mph
(N 15 kph)
- 5SM
07:44
Overcast
Fog And Mist
70°F / 21°C 66°F / 19°C 88% 30.12 in
(1020 mb)
NE 8.1 mph
(NE 13 kph)
- 5SM
07:09
Overcast
Fog And Mist
70°F / 21°C 66°F / 19°C 88% 30.09 in
(1019 mb)
N 8.1 mph
(N 13 kph)
- 6SM
06:54
Overcast
70°F / 21°C 66°F / 19°C 88% 30.09 in
(1019 mb)
Variable 6.9 mph
(Variable 11 kph)
- 7SM
06:24
Overcast
70°F / 21°C 66°F / 19°C 88% 30.09 in
(1019 mb)
Variable 6.9 mph
(Variable 11 kph)
- 7SM
06:03
Mostly Cloudy
70°F / 21°C 66°F / 19°C 88% 30.09 in
(1019 mb)
NNW 4.6 mph
(NNW 7 kph)
- 7SM
05:54
Mostly Cloudy
70°F / 21°C 66°F / 19°C 88% 30.09 in
(1019 mb)
N 3.5 mph
(N 6 kph)
- 8SM
04:08
Overcast
70°F / 21°C 66°F / 19°C 88% 30.09 in
(1019 mb)
NE 5.8 mph
(NE 9 kph)
- 8SM
03:54
Overcast
70°F / 21°C 66°F / 19°C 88% 30.09 in
(1019 mb)
NE 4.6 mph
(NE 7 kph)
- 10SM
02:54
Overcast
70°F / 21°C 66°F / 19°C 88% 30.06 in
(1018 mb)
ENE 3.5 mph
(ENE 6 kph)
- 10SM
01:54
Overcast
70°F / 21°C 66°F / 19°C 88% 30.06 in
(1018 mb)
NE 3.5 mph
(NE 6 kph)
- 10SM
00:54
Overcast
72°F / 22°C 66°F / 19°C 83% 30.09 in
(1019 mb)
NNE 4.6 mph
(NNE 7 kph)
- 10SM
00:50
Overcast
72°F / 22°C 66°F / 19°C 83% 30.09 in
(1019 mb)
NE 5.8 mph
(NE 9 kph)
- 10SM
Time Weather Temperature Dewpoint Humidity Pressure Winds Precip Visibility


Weather for websites

WeatherForYou.com, LLC is not responsible for any damages or problems caused by this service. Current weather conditions are obtained from the closest station including government and personal stations which may have varying degrees of accuracy. Weather forecasts are derived from the NOAA NDFD. Like all things, this site belongs to Jesus Christ... He just trusts us to maintain it. If you have any questions or comments email webmaster@weatherforyou.com

Copyright © 2016, WeatherForYou.com LLC. All rights reserved.